Year,Month,Day,Hour,Minute,Value (Times are PST for temperature in C)
2008,08,17,00,00,19.20
2008,08,17,00,01,19.20
2008,08,17,00,02,19.20
2008,08,17,00,03,19.20
2008,08,17,00,04,19.20
2008,08,17,00,05,19.20
2008,08,17,00,06,19.20
2008,08,17,00,07,19.20
2008,08,17,00,08,19.20
2008,08,17,00,09,19.10
2008,08,17,00,10,19.10
2008,08,17,00,11,19.00
2008,08,17,00,12,19.00
2008,08,17,00,13,18.90
2008,08,17,00,14,18.90
2008,08,17,00,15,18.90
2008,08,17,00,16,18.80
2008,08,17,00,17,18.80
2008,08,17,00,18,18.80
2008,08,17,00,19,18.80
2008,08,17,00,20,18.80
2008,08,17,00,21,18.70
2008,08,17,00,22,18.70
2008,08,17,00,23,18.70
2008,08,17,00,24,18.70
2008,08,17,00,25,18.70
2008,08,17,00,26,18.70
2008,08,17,00,27,18.70
2008,08,17,00,28,18.70
2008,08,17,00,29,18.70
2008,08,17,00,30,18.70
2008,08,17,00,31,18.70
2008,08,17,00,32,18.70
2008,08,17,00,33,18.70
2008,08,17,00,34,18.70
2008,08,17,00,35,18.70
2008,08,17,00,36,18.70
2008,08,17,00,37,18.70
2008,08,17,00,38,18.70
2008,08,17,00,39,18.70
2008,08,17,00,40,18.70
2008,08,17,00,41,18.60
2008,08,17,00,42,18.60
2008,08,17,00,43,18.60
2008,08,17,00,44,18.60
2008,08,17,00,45,18.60
2008,08,17,00,46,18.60
2008,08,17,00,47,18.50
2008,08,17,00,48,18.50
2008,08,17,00,49,18.50
2008,08,17,00,50,18.40
2008,08,17,00,51,18.40
2008,08,17,00,52,18.40
2008,08,17,00,53,18.40
2008,08,17,00,54,18.30
2008,08,17,00,55,18.30
2008,08,17,00,56,18.20
2008,08,17,00,57,18.10
2008,08,17,00,58,18.10
2008,08,17,00,59,18.00
2008,08,17,01,00,17.90
2008,08,17,01,01,17.90
2008,08,17,01,02,17.80
2008,08,17,01,03,17.80
2008,08,17,01,04,17.80
2008,08,17,01,05,17.70
2008,08,17,01,06,17.70
2008,08,17,01,07,17.60
2008,08,17,01,08,17.50
2008,08,17,01,09,17.50
2008,08,17,01,10,17.40
2008,08,17,01,11,17.40
2008,08,17,01,12,17.40
2008,08,17,01,13,17.30
2008,08,17,01,14,17.30
2008,08,17,01,15,17.30
2008,08,17,01,16,17.30
2008,08,17,01,17,17.30
2008,08,17,01,18,17.30
2008,08,17,01,19,17.20
2008,08,17,01,20,17.20
2008,08,17,01,21,17.20
2008,08,17,01,22,17.20
2008,08,17,01,23,17.20
2008,08,17,01,24,17.10
2008,08,17,01,25,17.10
2008,08,17,01,26,17.10
2008,08,17,01,27,17.10
2008,08,17,01,28,17.10
2008,08,17,01,29,17.10
2008,08,17,01,30,17.10
2008,08,17,01,31,17.10
2008,08,17,01,32,17.10
2008,08,17,01,33,17.10
2008,08,17,01,34,17.10
2008,08,17,01,35,17.10
2008,08,17,01,36,17.10
2008,08,17,01,37,17.00
2008,08,17,01,38,17.00
2008,08,17,01,39,17.00
2008,08,17,01,40,17.00
2008,08,17,01,41,16.90
2008,08,17,01,42,16.90
2008,08,17,01,43,16.90
2008,08,17,01,44,16.90
2008,08,17,01,45,16.90
2008,08,17,01,46,16.80
2008,08,17,01,47,16.80
2008,08,17,01,48,16.80
2008,08,17,01,49,16.70
2008,08,17,01,50,16.70
2008,08,17,01,51,16.70
2008,08,17,01,52,16.70
2008,08,17,01,53,16.60
2008,08,17,01,54,16.60
2008,08,17,01,55,16.60
2008,08,17,01,56,16.50
2008,08,17,01,57,16.50
2008,08,17,01,58,16.50
2008,08,17,01,59,16.40
2008,08,17,02,00,16.40
2008,08,17,02,01,16.40
2008,08,17,02,02,16.40
2008,08,17,02,03,16.40
2008,08,17,02,04,16.40
2008,08,17,02,05,16.40
2008,08,17,02,06,16.40
2008,08,17,02,07,16.40
2008,08,17,02,08,16.50
2008,08,17,02,09,16.50
2008,08,17,02,10,16.50
2008,08,17,02,11,16.60
2008,08,17,02,12,16.60
2008,08,17,02,13,16.60
2008,08,17,02,14,16.60
2008,08,17,02,15,16.60
2008,08,17,02,16,16.60
2008,08,17,02,17,16.60
2008,08,17,02,18,16.60
2008,08,17,02,19,16.60
2008,08,17,02,20,16.60
2008,08,17,02,21,16.60
2008,08,17,02,22,16.60
2008,08,17,02,23,16.60
2008,08,17,02,24,16.60
2008,08,17,02,25,16.60
2008,08,17,02,26,16.60
2008,08,17,02,27,16.60
2008,08,17,02,28,16.60
2008,08,17,02,29,16.60
2008,08,17,02,30,16.60
2008,08,17,02,31,16.60
2008,08,17,02,32,16.60
2008,08,17,02,33,16.60
2008,08,17,02,34,16.60
2008,08,17,02,35,16.60
2008,08,17,02,36,16.60
2008,08,17,02,37,16.70
2008,08,17,02,38,16.70
2008,08,17,02,39,16.70
2008,08,17,02,40,16.70
2008,08,17,02,41,16.70
2008,08,17,02,42,16.70
2008,08,17,02,43,16.70
2008,08,17,02,44,16.70
2008,08,17,02,45,16.70
2008,08,17,02,46,16.60
2008,08,17,02,47,16.70
2008,08,17,02,48,16.60
2008,08,17,02,49,16.60
2008,08,17,02,50,16.60
2008,08,17,02,51,16.60
2008,08,17,02,52,16.60
2008,08,17,02,53,16.60
2008,08,17,02,54,16.60
2008,08,17,02,55,16.60
2008,08,17,02,56,16.60
2008,08,17,02,57,16.60
2008,08,17,02,58,16.60
2008,08,17,02,59,16.60
2008,08,17,03,00,16.50
2008,08,17,03,01,16.50
2008,08,17,03,02,16.50
2008,08,17,03,03,16.50
2008,08,17,03,04,16.50
2008,08,17,03,05,16.40
2008,08,17,03,06,16.40
2008,08,17,03,07,16.40
2008,08,17,03,08,16.40
2008,08,17,03,09,16.40
2008,08,17,03,10,16.40
2008,08,17,03,11,16.40
2008,08,17,03,12,16.40
2008,08,17,03,13,16.40
2008,08,17,03,14,16.40
2008,08,17,03,15,16.40
2008,08,17,03,16,16.40
2008,08,17,03,17,16.40
2008,08,17,03,18,16.40
2008,08,17,03,19,16.40
2008,08,17,03,20,16.40
2008,08,17,03,21,16.40
2008,08,17,03,22,16.40
2008,08,17,03,23,16.40
2008,08,17,03,24,16.40
2008,08,17,03,25,16.40
2008,08,17,03,26,16.40
2008,08,17,03,27,16.40
2008,08,17,03,28,16.40
2008,08,17,03,29,16.40
2008,08,17,03,30,16.40
2008,08,17,03,31,16.40
2008,08,17,03,32,16.40
2008,08,17,03,33,16.40
2008,08,17,03,34,16.40
2008,08,17,03,35,16.40
2008,08,17,03,36,16.40
2008,08,17,03,37,16.40
2008,08,17,03,38,16.40
2008,08,17,03,39,16.40
2008,08,17,03,40,16.40
2008,08,17,03,41,16.40
2008,08,17,03,42,16.40
2008,08,17,03,43,16.40
2008,08,17,03,44,16.40
2008,08,17,03,45,16.40
2008,08,17,03,46,16.40
2008,08,17,03,47,16.40
2008,08,17,03,48,16.40
2008,08,17,03,49,16.40
2008,08,17,03,50,16.40
2008,08,17,03,51,16.40
2008,08,17,03,52,16.30
2008,08,17,03,53,16.30
2008,08,17,03,54,16.30
2008,08,17,03,55,16.30
2008,08,17,03,56,16.30
2008,08,17,03,57,16.30
2008,08,17,03,58,16.30
2008,08,17,03,59,16.30
2008,08,17,04,00,16.40
2008,08,17,04,01,16.40
2008,08,17,04,02,16.40
2008,08,17,04,03,16.40
2008,08,17,04,04,16.40
2008,08,17,04,05,16.40
2008,08,17,04,06,16.40
2008,08,17,04,07,16.40
2008,08,17,04,08,16.40
2008,08,17,04,09,16.40
2008,08,17,04,10,16.40
2008,08,17,04,11,16.40
2008,08,17,04,12,16.40
2008,08,17,04,13,16.40
2008,08,17,04,14,16.40
2008,08,17,04,15,16.40
2008,08,17,04,16,16.50
2008,08,17,04,17,16.50
2008,08,17,04,18,16.50
2008,08,17,04,19,16.50
2008,08,17,04,20,16.50
2008,08,17,04,21,16.50
2008,08,17,04,22,16.50
2008,08,17,04,23,16.50
2008,08,17,04,24,16.50
2008,08,17,04,25,16.40
2008,08,17,04,26,16.40
2008,08,17,04,27,16.40
2008,08,17,04,28,16.40
2008,08,17,04,29,16.40
2008,08,17,04,30,16.40
2008,08,17,04,31,16.40
2008,08,17,04,32,16.40
2008,08,17,04,33,16.40
2008,08,17,04,34,16.40
2008,08,17,04,35,16.40
2008,08,17,04,36,16.40
2008,08,17,04,37,16.40
2008,08,17,04,38,16.40
2008,08,17,04,39,16.40
2008,08,17,04,40,16.40
2008,08,17,04,41,16.40
2008,08,17,04,42,16.40
2008,08,17,04,43,16.40
2008,08,17,04,44,16.40
2008,08,17,04,45,16.40
2008,08,17,04,46,16.40
2008,08,17,04,47,16.40
2008,08,17,04,48,16.40
2008,08,17,04,49,16.40
2008,08,17,04,50,16.40
2008,08,17,04,51,16.40
2008,08,17,04,52,16.40
2008,08,17,04,53,16.40
2008,08,17,04,54,16.40
2008,08,17,04,55,16.40
2008,08,17,04,56,16.40
2008,08,17,04,57,16.40
2008,08,17,04,58,16.40
2008,08,17,04,59,16.40
2008,08,17,05,00,16.50
2008,08,17,05,01,16.50
2008,08,17,05,02,16.60
2008,08,17,05,03,16.60
2008,08,17,05,04,16.60
2008,08,17,05,05,16.60
2008,08,17,05,06,16.60
2008,08,17,05,07,16.60
2008,08,17,05,08,16.60
2008,08,17,05,09,16.60
2008,08,17,05,10,16.60
2008,08,17,05,11,16.60
2008,08,17,05,12,16.60
2008,08,17,05,13,16.60
2008,08,17,05,14,16.50
2008,08,17,05,15,16.50
2008,08,17,05,16,16.50
2008,08,17,05,17,16.50
2008,08,17,05,18,16.50
2008,08,17,05,19,16.40
2008,08,17,05,20,16.40
2008,08,17,05,21,16.40
2008,08,17,05,22,16.40
2008,08,17,05,23,16.40
2008,08,17,05,24,16.40
2008,08,17,05,25,16.40
2008,08,17,05,26,16.40
2008,08,17,05,27,16.30
2008,08,17,05,28,16.30
2008,08,17,05,29,16.20
2008,08,17,05,30,16.10
2008,08,17,05,31,16.00
2008,08,17,05,32,16.00
2008,08,17,05,33,15.90
2008,08,17,05,34,15.80
2008,08,17,05,35,15.80
2008,08,17,05,36,15.70
2008,08,17,05,37,15.70
2008,08,17,05,38,15.60
2008,08,17,05,39,15.60
2008,08,17,05,40,15.60
2008,08,17,05,41,15.60
2008,08,17,05,42,15.60
2008,08,17,05,43,15.50
2008,08,17,05,44,15.50
2008,08,17,05,45,15.50
2008,08,17,05,46,15.50
2008,08,17,05,47,15.60
2008,08,17,05,48,15.60
2008,08,17,05,49,15.60
2008,08,17,05,50,15.60
2008,08,17,05,51,15.60
2008,08,17,05,52,15.70
2008,08,17,05,53,15.70
2008,08,17,05,54,15.70
2008,08,17,05,55,15.80
2008,08,17,05,56,15.80
2008,08,17,05,57,15.80
2008,08,17,05,58,15.80
2008,08,17,05,59,15.90
2008,08,17,06,00,15.90
2008,08,17,06,01,15.90
2008,08,17,06,02,15.90
2008,08,17,06,03,16.00
2008,08,17,06,04,16.00
2008,08,17,06,05,16.10
2008,08,17,06,06,16.10
2008,08,17,06,07,16.10
2008,08,17,06,08,16.10
2008,08,17,06,09,16.20
2008,08,17,06,10,16.20
2008,08,17,06,11,16.20
2008,08,17,06,12,16.20
2008,08,17,06,13,16.30
2008,08,17,06,14,16.30
2008,08,17,06,15,16.30
2008,08,17,06,16,16.30
2008,08,17,06,17,16.30
2008,08,17,06,18,16.30
2008,08,17,06,19,16.40
2008,08,17,06,20,16.40
2008,08,17,06,21,16.40
2008,08,17,06,22,16.40
2008,08,17,06,23,16.40
2008,08,17,06,24,16.40
2008,08,17,06,25,16.40
2008,08,17,06,26,16.50
2008,08,17,06,27,16.50
2008,08,17,06,28,16.50
2008,08,17,06,29,16.60
2008,08,17,06,30,16.60
2008,08,17,06,31,16.60
2008,08,17,06,32,16.60
2008,08,17,06,33,16.70
2008,08,17,06,34,16.70
2008,08,17,06,35,16.70
2008,08,17,06,36,16.70
2008,08,17,06,37,16.70
2008,08,17,06,38,16.80
2008,08,17,06,39,16.80
2008,08,17,06,40,16.80
2008,08,17,06,41,16.80
2008,08,17,06,42,16.80
2008,08,17,06,43,16.80
2008,08,17,06,44,16.90
2008,08,17,06,45,16.90
2008,08,17,06,46,16.90
2008,08,17,06,47,17.00
2008,08,17,06,48,17.00
2008,08,17,06,49,17.10
2008,08,17,06,50,17.10
2008,08,17,06,51,17.10
2008,08,17,06,52,17.10
2008,08,17,06,53,17.10
2008,08,17,06,54,17.20
2008,08,17,06,55,17.20
2008,08,17,06,56,17.20
2008,08,17,06,57,17.20
2008,08,17,06,58,17.30
2008,08,17,06,59,17.30
2008,08,17,07,00,17.30
2008,08,17,07,01,17.40
2008,08,17,07,02,17.40
2008,08,17,07,03,17.40
2008,08,17,07,04,17.40
2008,08,17,07,05,17.40
2008,08,17,07,06,17.40
2008,08,17,07,07,17.50
2008,08,17,07,08,17.50
2008,08,17,07,09,17.50
2008,08,17,07,10,17.50
2008,08,17,07,11,17.50
2008,08,17,07,12,17.50
2008,08,17,07,13,17.60
2008,08,17,07,14,17.60
2008,08,17,07,15,17.60
2008,08,17,07,16,17.60
2008,08,17,07,17,17.70
2008,08,17,07,18,17.70
2008,08,17,07,19,17.70
2008,08,17,07,20,17.80
2008,08,17,07,21,17.80
2008,08,17,07,22,17.80
2008,08,17,07,23,17.80
2008,08,17,07,24,17.80
2008,08,17,07,25,17.80
2008,08,17,07,26,17.80
2008,08,17,07,27,17.90
2008,08,17,07,28,17.90
2008,08,17,07,29,17.90
2008,08,17,07,30,17.90
2008,08,17,07,31,17.90
2008,08,17,07,32,17.70
2008,08,17,07,33,17.40
2008,08,17,07,34,17.30
2008,08,17,07,35,17.00
2008,08,17,07,36,16.80
2008,08,17,07,37,16.60
2008,08,17,07,38,16.40
2008,08,17,07,39,16.20
2008,08,17,07,40,16.10
2008,08,17,07,41,15.90
2008,08,17,07,42,15.70
2008,08,17,07,43,15.60
2008,08,17,07,44,15.50
2008,08,17,07,45,15.40
2008,08,17,07,46,15.30
2008,08,17,07,47,15.30
2008,08,17,07,48,15.30
2008,08,17,07,49,15.30
2008,08,17,07,50,15.30
2008,08,17,07,51,15.40
2008,08,17,07,52,15.40
2008,08,17,07,53,15.50
2008,08,17,07,54,15.60
2008,08,17,07,55,15.60
2008,08,17,07,56,15.70
2008,08,17,07,57,15.70
2008,08,17,07,58,15.80
2008,08,17,07,59,15.90
2008,08,17,08,00,15.90
2008,08,17,08,01,15.90
2008,08,17,08,02,15.90
2008,08,17,08,03,16.00
2008,08,17,08,04,16.00
2008,08,17,08,05,16.00
2008,08,17,08,06,16.10
2008,08,17,08,07,16.10
2008,08,17,08,08,16.10
2008,08,17,08,09,16.10
2008,08,17,08,10,16.10
2008,08,17,08,11,16.10
2008,08,17,08,12,16.10
2008,08,17,08,13,16.10
2008,08,17,08,14,16.20
2008,08,17,08,15,16.20
2008,08,17,08,16,16.20
2008,08,17,08,17,16.30
2008,08,17,08,18,16.30
2008,08,17,08,19,16.30
2008,08,17,08,20,16.40
2008,08,17,08,21,16.50
2008,08,17,08,22,16.60
2008,08,17,08,23,16.60
2008,08,17,08,24,16.70
2008,08,17,08,25,16.80
2008,08,17,08,26,16.90
2008,08,17,08,27,17.00
2008,08,17,08,28,17.10
2008,08,17,08,29,17.20
2008,08,17,08,30,17.30
2008,08,17,08,31,17.40
2008,08,17,08,32,17.50
2008,08,17,08,33,17.60
2008,08,17,08,34,17.80
2008,08,17,08,35,18.00
2008,08,17,08,36,18.10
2008,08,17,08,37,18.20
2008,08,17,08,38,18.20
2008,08,17,08,39,18.30
2008,08,17,08,40,18.40
2008,08,17,08,41,18.50
2008,08,17,08,42,18.50
2008,08,17,08,43,18.60
2008,08,17,08,44,18.60
2008,08,17,08,45,18.70
2008,08,17,08,46,18.80
2008,08,17,08,47,18.80
2008,08,17,08,48,18.90
2008,08,17,08,49,19.10
2008,08,17,08,50,19.20
2008,08,17,08,51,19.30
2008,08,17,08,52,19.50
2008,08,17,08,53,19.60
2008,08,17,08,54,19.70
2008,08,17,08,55,19.80
2008,08,17,08,56,19.90
2008,08,17,08,57,20.00
2008,08,17,08,58,20.00
2008,08,17,08,59,20.10
2008,08,17,09,00,20.20
2008,08,17,09,01,20.30
2008,08,17,09,02,20.40
2008,08,17,09,03,20.50
2008,08,17,09,04,20.60
2008,08,17,09,05,20.70
2008,08,17,09,06,20.70
2008,08,17,09,07,20.80
2008,08,17,09,08,20.90
2008,08,17,09,09,21.00
2008,08,17,09,10,21.10
2008,08,17,09,11,21.20
2008,08,17,09,12,21.30
2008,08,17,09,13,21.40
2008,08,17,09,14,21.60
2008,08,17,09,15,21.70
2008,08,17,09,16,21.80
2008,08,17,09,17,22.00
2008,08,17,09,18,22.00
2008,08,17,09,19,22.10
2008,08,17,09,20,22.20
2008,08,17,09,21,22.20
2008,08,17,09,22,22.30
2008,08,17,09,23,22.30
2008,08,17,09,24,22.40
2008,08,17,09,25,22.40
2008,08,17,09,26,22.50
2008,08,17,09,27,22.60
2008,08,17,09,28,22.70
2008,08,17,09,29,22.70
2008,08,17,09,30,22.70
2008,08,17,09,31,22.70
2008,08,17,09,32,22.60
2008,08,17,09,33,22.10
2008,08,17,09,34,21.30
2008,08,17,09,35,20.30
2008,08,17,09,36,19.60
2008,08,17,09,37,18.90
2008,08,17,09,38,18.40
2008,08,17,09,39,18.10
2008,08,17,09,40,17.90
2008,08,17,09,41,17.80
2008,08,17,09,42,17.70
2008,08,17,09,43,17.50
2008,08,17,09,44,17.30
2008,08,17,09,45,17.10
2008,08,17,09,46,17.00
2008,08,17,09,47,16.90
2008,08,17,09,48,16.80
2008,08,17,09,49,16.80
2008,08,17,09,50,16.80
2008,08,17,09,51,16.80
2008,08,17,09,52,16.70
2008,08,17,09,53,16.70
2008,08,17,09,54,16.80
2008,08,17,09,55,16.80
2008,08,17,09,56,16.80
2008,08,17,09,57,16.80
2008,08,17,09,58,16.80
2008,08,17,09,59,16.70
2008,08,17,10,00,16.60
2008,08,17,10,01,16.50
2008,08,17,10,02,16.50
2008,08,17,10,03,16.40
2008,08,17,10,04,16.40
2008,08,17,10,05,16.30
2008,08,17,10,06,16.30
2008,08,17,10,07,16.30
2008,08,17,10,08,16.20
2008,08,17,10,09,16.30
2008,08,17,10,10,16.30
2008,08,17,10,11,16.40
2008,08,17,10,12,16.40
2008,08,17,10,13,16.40
2008,08,17,10,14,16.30
2008,08,17,10,15,16.30
2008,08,17,10,16,16.30
2008,08,17,10,17,16.40
2008,08,17,10,18,16.50
2008,08,17,10,19,16.60
2008,08,17,10,20,16.70
2008,08,17,10,21,16.80
2008,08,17,10,22,16.90
2008,08,17,10,23,17.00
2008,08,17,10,24,17.00
2008,08,17,10,25,17.10
2008,08,17,10,26,17.10
2008,08,17,10,27,17.20
2008,08,17,10,28,17.20
2008,08,17,10,29,17.30
2008,08,17,10,30,17.30
2008,08,17,10,31,17.30
2008,08,17,10,32,17.40
2008,08,17,10,33,17.50
2008,08,17,10,34,17.60
2008,08,17,10,35,17.70
2008,08,17,10,36,17.80
2008,08,17,10,37,17.80
2008,08,17,10,38,17.90
2008,08,17,10,39,18.00
2008,08,17,10,40,18.10
2008,08,17,10,41,18.20
2008,08,17,10,42,18.40
2008,08,17,10,43,18.50
2008,08,17,10,44,18.60
2008,08,17,10,45,18.70
2008,08,17,10,46,18.80
2008,08,17,10,47,18.90
2008,08,17,10,48,18.90
2008,08,17,10,49,19.10
2008,08,17,10,50,19.20
2008,08,17,10,51,19.30
2008,08,17,10,52,19.50
2008,08,17,10,53,19.50
2008,08,17,10,54,19.70
2008,08,17,10,55,19.80
2008,08,17,10,56,19.90
2008,08,17,10,57,20.00
2008,08,17,10,58,20.00
2008,08,17,10,59,20.20
2008,08,17,11,00,20.40
2008,08,17,11,01,20.60
2008,08,17,11,02,20.70
2008,08,17,11,03,20.90
2008,08,17,11,04,21.10
2008,08,17,11,05,21.20
2008,08,17,11,06,21.40
2008,08,17,11,07,21.60
2008,08,17,11,08,21.70
2008,08,17,11,09,21.90
2008,08,17,11,10,22.10
2008,08,17,11,11,22.20
2008,08,17,11,12,22.30
2008,08,17,11,13,22.40
2008,08,17,11,14,22.50
2008,08,17,11,15,22.60
2008,08,17,11,16,22.70
2008,08,17,11,17,22.80
2008,08,17,11,18,22.90
2008,08,17,11,19,23.00
2008,08,17,11,20,23.20
2008,08,17,11,21,23.40
2008,08,17,11,22,23.50
2008,08,17,11,23,23.60
2008,08,17,11,24,23.70
2008,08,17,11,25,23.70
2008,08,17,11,26,23.80
2008,08,17,11,27,23.90
2008,08,17,11,28,23.90
2008,08,17,11,29,23.90
2008,08,17,11,30,23.90
2008,08,17,11,31,23.90
2008,08,17,11,32,23.90
2008,08,17,11,33,23.90
2008,08,17,11,34,23.90
2008,08,17,11,35,23.80
2008,08,17,11,36,23.80
2008,08,17,11,37,23.80
2008,08,17,11,38,23.80
2008,08,17,11,39,23.90
2008,08,17,11,40,23.90
2008,08,17,11,41,23.90
2008,08,17,11,42,23.90
2008,08,17,11,43,23.90
2008,08,17,11,44,23.90
2008,08,17,11,45,24.00
2008,08,17,11,46,24.10
2008,08,17,11,47,24.10
2008,08,17,11,48,24.10
2008,08,17,11,49,24.10
2008,08,17,11,50,24.10
2008,08,17,11,51,24.20
2008,08,17,11,52,24.30
2008,08,17,11,53,24.20
2008,08,17,11,54,24.00
2008,08,17,11,55,23.80
2008,08,17,11,56,23.60
2008,08,17,11,57,23.50
2008,08,17,11,58,23.40
2008,08,17,11,59,23.40
2008,08,17,12,00,23.40
2008,08,17,12,01,23.30
2008,08,17,12,02,23.20
2008,08,17,12,03,23.10
2008,08,17,12,04,23.00
2008,08,17,12,05,22.90
2008,08,17,12,06,22.90
2008,08,17,12,07,22.90
2008,08,17,12,08,22.90
2008,08,17,12,09,22.90
2008,08,17,12,10,22.90
2008,08,17,12,11,22.70
2008,08,17,12,12,22.40
2008,08,17,12,13,22.10
2008,08,17,12,14,21.80
2008,08,17,12,15,21.50
2008,08,17,12,16,21.30
2008,08,17,12,17,21.20
2008,08,17,12,18,21.10
2008,08,17,12,19,21.10
2008,08,17,12,20,21.10
2008,08,17,12,21,21.10
2008,08,17,12,22,21.10
2008,08,17,12,23,21.20
2008,08,17,12,24,21.30
2008,08,17,12,25,21.30
2008,08,17,12,26,21.30
2008,08,17,12,27,21.30
2008,08,17,12,28,21.30
2008,08,17,12,29,21.30
2008,08,17,12,30,21.40
2008,08,17,12,31,21.50
2008,08,17,12,32,21.60
2008,08,17,12,33,21.80
2008,08,17,12,34,21.80
2008,08,17,12,35,21.90
2008,08,17,12,36,21.80
2008,08,17,12,37,21.80
2008,08,17,12,38,21.90
2008,08,17,12,39,22.00
2008,08,17,12,40,22.10
2008,08,17,12,41,22.20
2008,08,17,12,42,22.20
2008,08,17,12,43,22.10
2008,08,17,12,44,22.10
2008,08,17,12,45,22.10
2008,08,17,12,46,22.10
2008,08,17,12,47,22.00
2008,08,17,12,48,22.00
2008,08,17,12,49,21.90
2008,08,17,12,50,21.90
2008,08,17,12,51,22.00
2008,08,17,12,52,22.10
2008,08,17,12,53,22.20
2008,08,17,12,54,22.20
2008,08,17,12,55,22.20
2008,08,17,12,56,22.30
2008,08,17,12,57,22.20
2008,08,17,12,58,22.10
2008,08,17,12,59,22.10
2008,08,17,13,00,22.10
2008,08,17,13,01,22.00
2008,08,17,13,02,21.90
2008,08,17,13,03,22.00
2008,08,17,13,04,22.10
2008,08,17,13,05,22.10
2008,08,17,13,06,22.00
2008,08,17,13,07,22.00
2008,08,17,13,08,22.10
2008,08,17,13,09,22.20
2008,08,17,13,10,22.20
2008,08,17,13,11,22.20
2008,08,17,13,12,22.20
2008,08,17,13,13,22.30
2008,08,17,13,14,22.40
2008,08,17,13,15,22.50
2008,08,17,13,16,22.60
2008,08,17,13,17,22.50
2008,08,17,13,18,22.50
2008,08,17,13,19,22.40
2008,08,17,13,20,22.30
2008,08,17,13,21,22.30
2008,08,17,13,22,22.30
2008,08,17,13,23,22.20
2008,08,17,13,24,22.10
2008,08,17,13,25,21.90
2008,08,17,13,26,21.90
2008,08,17,13,27,21.80
2008,08,17,13,28,21.80
2008,08,17,13,29,21.80
2008,08,17,13,30,21.80
2008,08,17,13,31,21.70
2008,08,17,13,32,21.70
2008,08,17,13,33,21.60
2008,08,17,13,34,21.60
2008,08,17,13,35,21.60
2008,08,17,13,36,21.60
2008,08,17,13,37,21.60
2008,08,17,13,38,21.60
2008,08,17,13,39,21.60
2008,08,17,13,40,21.60
2008,08,17,13,41,21.60
2008,08,17,13,42,21.60
2008,08,17,13,43,21.60
2008,08,17,13,44,21.70
2008,08,17,13,45,21.70
2008,08,17,13,46,21.60
2008,08,17,13,47,21.50
2008,08,17,13,48,21.50
2008,08,17,13,49,21.50
2008,08,17,13,50,21.40
2008,08,17,13,51,21.50
2008,08,17,13,52,21.60
2008,08,17,13,53,21.60
2008,08,17,13,54,21.60
2008,08,17,13,55,21.60
2008,08,17,13,56,21.60
2008,08,17,13,57,21.70
2008,08,17,13,58,21.70
2008,08,17,13,59,21.80
2008,08,17,14,00,21.90
2008,08,17,14,01,21.90
2008,08,17,14,02,22.00
2008,08,17,14,03,22.00
2008,08,17,14,04,22.00
2008,08,17,14,05,22.10
2008,08,17,14,06,22.10
2008,08,17,14,07,22.20
2008,08,17,14,08,22.40
2008,08,17,14,09,22.40
2008,08,17,14,10,22.50
2008,08,17,14,11,22.60
2008,08,17,14,12,22.70
2008,08,17,14,13,22.70
2008,08,17,14,14,22.70
2008,08,17,14,15,22.70
2008,08,17,14,16,22.80
2008,08,17,14,17,22.80
2008,08,17,14,18,22.80
2008,08,17,14,19,22.90
2008,08,17,14,20,22.90
2008,08,17,14,21,23.00
2008,08,17,14,22,23.20
2008,08,17,14,23,23.30
2008,08,17,14,24,23.50
2008,08,17,14,25,23.60
2008,08,17,14,26,23.70
2008,08,17,14,27,23.80
2008,08,17,14,28,23.90
2008,08,17,14,29,24.00
2008,08,17,14,30,24.10
2008,08,17,14,31,24.10
2008,08,17,14,32,24.10
2008,08,17,14,33,24.20
2008,08,17,14,34,24.20
2008,08,17,14,35,24.20
2008,08,17,14,36,24.10
2008,08,17,14,37,24.00
2008,08,17,14,38,24.00
2008,08,17,14,39,24.00
2008,08,17,14,40,24.00
2008,08,17,14,41,24.10
2008,08,17,14,42,24.20
2008,08,17,14,43,24.30
2008,08,17,14,44,24.30
2008,08,17,14,45,24.30
2008,08,17,14,46,24.30
2008,08,17,14,47,24.40
2008,08,17,14,48,24.40
2008,08,17,14,49,24.40
2008,08,17,14,50,24.40
2008,08,17,14,51,24.40
2008,08,17,14,52,24.40
2008,08,17,14,53,24.40
2008,08,17,14,54,24.20
2008,08,17,14,55,24.10
2008,08,17,14,56,23.90
2008,08,17,14,57,23.80
2008,08,17,14,58,23.70
2008,08,17,14,59,23.60
2008,08,17,15,00,23.50
2008,08,17,15,01,23.40
2008,08,17,15,02,23.40
2008,08,17,15,03,23.50
2008,08,17,15,04,23.60
2008,08,17,15,05,23.70
2008,08,17,15,06,23.70
2008,08,17,15,07,23.70
2008,08,17,15,08,23.70
2008,08,17,15,09,23.80
2008,08,17,15,10,23.70
2008,08,17,15,11,23.80
2008,08,17,15,12,23.80
2008,08,17,15,13,23.70
2008,08,17,15,14,23.70
2008,08,17,15,15,23.70
2008,08,17,15,16,23.60
2008,08,17,15,17,23.60
2008,08,17,15,18,23.60
2008,08,17,15,19,23.60
2008,08,17,15,20,23.60
2008,08,17,15,21,23.60
2008,08,17,15,22,23.60
2008,08,17,15,23,23.60
2008,08,17,15,24,23.60
2008,08,17,15,25,23.70
2008,08,17,15,26,23.70
2008,08,17,15,27,23.80
2008,08,17,15,28,23.70
2008,08,17,15,29,23.40
2008,08,17,15,30,23.20
2008,08,17,15,31,23.00
2008,08,17,15,32,22.80
2008,08,17,15,33,22.60
2008,08,17,15,34,22.60
2008,08,17,15,35,22.50
2008,08,17,15,36,22.40
2008,08,17,15,37,22.40
2008,08,17,15,38,22.30
2008,08,17,15,39,22.40
2008,08,17,15,40,22.40
2008,08,17,15,41,22.50
2008,08,17,15,42,22.50
2008,08,17,15,43,22.60
2008,08,17,15,44,22.70
2008,08,17,15,45,22.80
2008,08,17,15,46,22.80
2008,08,17,15,47,22.90
2008,08,17,15,48,23.00
2008,08,17,15,49,23.00
2008,08,17,15,50,23.10
2008,08,17,15,51,23.20
2008,08,17,15,52,23.20
2008,08,17,15,53,23.20
2008,08,17,15,54,23.10
2008,08,17,15,55,23.10
2008,08,17,15,56,23.10
2008,08,17,15,57,23.10
2008,08,17,15,58,23.10
2008,08,17,15,59,23.10
2008,08,17,16,00,23.10
2008,08,17,16,01,23.20
2008,08,17,16,02,23.20
2008,08,17,16,03,23.20
2008,08,17,16,04,23.20
2008,08,17,16,05,23.20
2008,08,17,16,06,23.20
2008,08,17,16,07,23.10
2008,08,17,16,08,23.00
2008,08,17,16,09,22.90
2008,08,17,16,10,22.80
2008,08,17,16,11,22.80
2008,08,17,16,12,22.70
2008,08,17,16,13,22.70
2008,08,17,16,14,22.70
2008,08,17,16,15,22.80
2008,08,17,16,16,22.80
2008,08,17,16,17,22.90
2008,08,17,16,18,23.00
2008,08,17,16,19,23.10
2008,08,17,16,20,23.10
2008,08,17,16,21,23.20
2008,08,17,16,22,23.30
2008,08,17,16,23,23.30
2008,08,17,16,24,23.30
2008,08,17,16,25,23.30
2008,08,17,16,26,23.30
2008,08,17,16,27,23.30
2008,08,17,16,28,23.30
2008,08,17,16,29,23.40
2008,08,17,16,30,23.40
2008,08,17,16,31,23.50
2008,08,17,16,32,23.60
2008,08,17,16,33,23.60
2008,08,17,16,34,23.70
2008,08,17,16,35,23.70
2008,08,17,16,36,23.80
2008,08,17,16,37,23.80
2008,08,17,16,38,23.90
2008,08,17,16,39,24.00
2008,08,17,16,40,24.10
2008,08,17,16,41,24.10
2008,08,17,16,42,24.20
2008,08,17,16,43,24.30
2008,08,17,16,44,24.30
2008,08,17,16,45,24.30
2008,08,17,16,46,24.40
2008,08,17,16,47,24.40
2008,08,17,16,48,24.40
2008,08,17,16,49,24.50
2008,08,17,16,50,24.50
2008,08,17,16,51,24.60
2008,08,17,16,52,24.60
2008,08,17,16,53,24.70
2008,08,17,16,54,24.70
2008,08,17,16,55,24.80
2008,08,17,16,56,24.90
2008,08,17,16,57,25.00
2008,08,17,16,58,25.10
2008,08,17,16,59,25.10
2008,08,17,17,00,25.10
2008,08,17,17,01,25.10
2008,08,17,17,02,25.10
2008,08,17,17,03,25.00
2008,08,17,17,04,24.90
2008,08,17,17,05,24.60
2008,08,17,17,06,24.30
2008,08,17,17,07,24.10
2008,08,17,17,08,23.90
2008,08,17,17,09,23.70
2008,08,17,17,10,23.50
2008,08,17,17,11,23.30
2008,08,17,17,12,23.20
2008,08,17,17,13,22.80
2008,08,17,17,14,22.40
2008,08,17,17,15,22.10
2008,08,17,17,16,21.80
2008,08,17,17,17,21.60
2008,08,17,17,18,21.40
2008,08,17,17,19,21.30